• In Hungary
  • List of Countries
  • For 7 days
  • Water Temperature
  • Satellite Maps
  • Weather Map
  • News
  • Weather Widgets
  • user-avatar
    Login

    Hourly Weather Konakri

    Today, 21 January, Sunday

    Time Temperature Precipitation Wind Pressure Humidity
    00:00 +26°C° 0 mm 1 mps 758 mmHg 75%
    01:00 +25°C° 0 mm 1 mps 758 mmHg 76%
    02:00 +25°C° 0 mm 1 mps 757 mmHg 76%
    03:00 +25°C° 0 mm 2 mps 757 mmHg 76%
    04:00 +24°C° 0 mm 2 mps 758 mmHg 75%
    05:00 +24°C° 0 mm 2 mps 758 mmHg 75%
    06:00 +25°C° 0 mm 2 mps 758 mmHg 68%
    07:00 +27°C° 0 mm 2 mps 758 mmHg 61%
    08:00 +28°C° 0 mm 1 mps 758 mmHg 55%
    09:00 +31°C° 0 mm 1 mps 758 mmHg 47%
    10:00 +34°C° 0 mm 1 mps 758 mmHg 38%
    11:00 +36°C° 0 mm 1 mps 758 mmHg 30%
    12:00 +37°C° 0 mm 1 mps 757 mmHg 28%
    13:00 +38°C° 0 mm 2 mps 756 mmHg 26%
    14:00 +38°C° 0 mm 3 mps 756 mmHg 25%
    15:00 +37°C° 0 mm 3 mps 756 mmHg 31%
    16:00 +35°C° 0 mm 4 mps 755 mmHg 36%
    17:00 +34°C° 0 mm 4 mps 755 mmHg 42%
    18:00 +32°C° 0 mm 4 mps 756 mmHg 52%
    19:00 +29°C° 0 mm 3 mps 756 mmHg 62%
    20:00 +27°C° 0 mm 3 mps 757 mmHg 71%
    21:00 +27°C° 0 mm 3 mps 757 mmHg 73%
    22:00 +26°C° 0 mm 2 mps 757 mmHg 74%
    23:00 +26°C° 0 mm 2 mps 758 mmHg 75%

    Tomorrow, 22 January, Monday

    Time Temperature Precipitation Wind Pressure Humidity
    00:00 +25°C° 0 mm 2 mps 757 mmHg 75%
    01:00 +25°C° 0 mm 2 mps 757 mmHg 75%
    02:00 +25°C° 0 mm 2 mps 757 mmHg 75%
    03:00 +24°C° 0 mm 2 mps 757 mmHg 74%
    04:00 +24°C° 0 mm 2 mps 757 mmHg 74%
    05:00 +24°C° 0 mm 2 mps 757 mmHg 73%
    06:00 +25°C° 0 mm 2 mps 757 mmHg 67%
    07:00 +26°C° 0 mm 2 mps 757 mmHg 60%
    08:00 +27°C° 0 mm 2 mps 758 mmHg 54%
    09:00 +30°C° 0 mm 1 mps 757 mmHg 44%
    10:00 +33°C° 0 mm 1 mps 757 mmHg 34%
    11:00 +35°C° 0 mm 1 mps 757 mmHg 24%
    12:00 +37°C° 0 mm 2 mps 756 mmHg 24%
    13:00 +37°C° 0 mm 3 mps 756 mmHg 24%
    14:00 +38°C° 0 mm 4 mps 755 mmHg 24%
    15:00 +36°C° 0 mm 4 mps 755 mmHg 30%
    16:00 +35°C° 0 mm 4 mps 755 mmHg 36%
    17:00 +33°C° 0 mm 4 mps 755 mmHg 43%
    18:00 +30°C° 0 mm 4 mps 755 mmHg 54%
    19:00 +28°C° 0 mm 4 mps 756 mmHg 64%
    20:00 +27°C° 0 mm 3 mps 756 mmHg 75%
    21:00 +26°C° 0 mm 3 mps 757 mmHg 77%
    22:00 +26°C° 0 mm 2 mps 757 mmHg 78%
    23:00 +25°C° 0 mm 2 mps 757 mmHg 80%

    Day after tomorrow, 23 January, Tuesday

    Time Temperature Precipitation Wind Pressure Humidity
    00:00 +25°C° 0 mm 1 mps 757 mmHg 81%
    01:00 +25°C° 0 mm 1 mps 757 mmHg 82%
    02:00 +24°C° 0 mm 1 mps 756 mmHg 82%
    03:00 +24°C° 0 mm 1 mps 756 mmHg 83%
    04:00 +24°C° 0 mm 1 mps 756 mmHg 83%
    05:00 +23°C° 0 mm 1 mps 756 mmHg 84%
    06:00 +25°C° 0 mm 1 mps 757 mmHg 78%
    07:00 +26°C° 0 mm 1 mps 757 mmHg 72%
    08:00 +27°C° 0 mm 1 mps 758 mmHg 66%
    09:00 +30°C° 0 mm 1 mps 758 mmHg 57%
    10:00 +32°C° 0 mm 1 mps 758 mmHg 48%
    11:00 +35°C° 0 mm 1 mps 757 mmHg 40%
    12:00 +36°C° 0 mm 2 mps 757 mmHg 39%
    13:00 +36°C° 0 mm 3 mps 756 mmHg 39%
    14:00 +36°C° 0 mm 4 mps 755 mmHg 39%
    15:00 +34°C° 0 mm 4 mps 755 mmHg 46%
    16:00 +33°C° 0 mm 4 mps 755 mmHg 52%
    17:00 +30°C° 0 mm 5 mps 755 mmHg 59%
    18:00 +29°C° 0 mm 4 mps 756 mmHg 66%
    19:00 +28°C° 0 mm 4 mps 756 mmHg 73%
    20:00 +27°C° 0 mm 4 mps 757 mmHg 79%
    21:00 +26°C° 0 mm 3 mps 757 mmHg 82%
    22:00 +26°C° 0 mm 3 mps 757 mmHg 84%
    23:00 +25°C° 0 mm 3 mps 757 mmHg 87%

    24 January, Wednesday

    Time Temperature Precipitation Wind Pressure Humidity
    00:00 +25°C° 0 mm 2 mps 757 mmHg 88%
    01:00 +25°C° 0 mm 2 mps 757 mmHg 89%
    02:00 +24°C° 0 mm 2 mps 756 mmHg 90%
    03:00 +24°C° 0 mm 2 mps 756 mmHg 91%
    04:00 +24°C° 0 mm 2 mps 756 mmHg 92%
    05:00 +23°C° 0 mm 2 mps 757 mmHg 93%
    06:00 +24°C° 0 mm 2 mps 757 mmHg 87%
    07:00 +25°C° 0 mm 2 mps 758 mmHg 81%
    08:00 +26°C° 0 mm 2 mps 758 mmHg 74%
    09:00 +29°C° 0 mm 2 mps 758 mmHg 63%
    10:00 +32°C° 0 mm 2 mps 758 mmHg 51%
    11:00 +35°C° 0 mm 2 mps 758 mmHg 39%
    12:00 +36°C° 0 mm 2 mps 757 mmHg 39%
    13:00 +36°C° 0 mm 3 mps 756 mmHg 39%
    14:00 +36°C° 0 mm 4 mps 755 mmHg 39%
    15:00 +35°C° 0 mm 4 mps 755 mmHg 45%
    16:00 +33°C° 0 mm 4 mps 755 mmHg 52%
    17:00 +30°C° 0 mm 5 mps 754 mmHg 59%
    18:00 +29°C° 0 mm 4 mps 755 mmHg 66%
    19:00 +28°C° 0 mm 4 mps 756 mmHg 73%
    20:00 +26°C° 0 mm 3 mps 756 mmHg 80%
    21:00 +26°C° 0 mm 3 mps 757 mmHg 82%
    22:00 +26°C° 0 mm 3 mps 757 mmHg 83%
    23:00 +25°C° 0 mm 3 mps 757 mmHg 85%

    25 January, Thursday

    Time Temperature Precipitation Wind Pressure Humidity
    00:00 +25°C° 0 mm 2 mps 757 mmHg 86%
    01:00 +24°C° 0 mm 2 mps 756 mmHg 87%
    02:00 +24°C° 0 mm 2 mps 756 mmHg 88%
    03:00 +24°C° 0 mm 2 mps 756 mmHg 88%
    04:00 +23°C° 0 mm 2 mps 756 mmHg 89%
    05:00 +23°C° 0 mm 2 mps 756 mmHg 89%
    06:00 +24°C° 0 mm 2 mps 756 mmHg 81%
    07:00 +25°C° 0 mm 2 mps 757 mmHg 74%
    08:00 +27°C° 0 mm 2 mps 757 mmHg 67%
    09:00 +30°C° 0 mm 1 mps 757 mmHg 56%
    10:00 +33°C° 0 mm 1 mps 757 mmHg 45%
    11:00 +36°C° 0 mm 1 mps 757 mmHg 35%
    12:00 +37°C° 0 mm 2 mps 756 mmHg 33%
    13:00 +37°C° 0 mm 3 mps 755 mmHg 32%
    14:00 +37°C° 0 mm 4 mps 754 mmHg 30%
    15:00 +36°C° 0 mm 4 mps 754 mmHg 36%
    16:00 +34°C° 0 mm 4 mps 754 mmHg 43%
    17:00 +33°C° 0 mm 4 mps 754 mmHg 49%
    18:00 +30°C° 0 mm 4 mps 754 mmHg 58%
    19:00 +28°C° 0 mm 4 mps 755 mmHg 67%
    20:00 +27°C° 0 mm 3 mps 756 mmHg 76%
    21:00 +26°C° 0 mm 3 mps 756 mmHg 79%
    22:00 +26°C° 0 mm 3 mps 756 mmHg 81%
    23:00 +25°C° 0 mm 2 mps 756 mmHg 84%

    26 January, Friday

    Time Temperature Precipitation Wind Pressure Humidity
    00:00 +25°C° 0 mm 2 mps 756 mmHg 85%
    01:00 +25°C° 0 mm 2 mps 756 mmHg 86%
    02:00 +24°C° 0 mm 1 mps 756 mmHg 87%
    03:00 +24°C° 0 mm 1 mps 756 mmHg 88%
    04:00 +24°C° 0 mm 1 mps 756 mmHg 88%
    05:00 +23°C° 0 mm 2 mps 756 mmHg 89%
    06:00 +24°C° 0 mm 1 mps 757 mmHg 83%
    07:00 +26°C° 0 mm 1 mps 757 mmHg 78%
    08:00 +27°C° 0 mm 1 mps 758 mmHg 72%
    09:00 +29°C° 0 mm 1 mps 757 mmHg 62%
    10:00 +32°C° 0 mm 1 mps 757 mmHg 52%
    11:00 +34°C° 0 mm 1 mps 757 mmHg 42%
    12:00 +35°C° 0 mm 2 mps 756 mmHg 41%
    13:00 +36°C° 0 mm 2 mps 755 mmHg 41%
    14:00 +36°C° 0 mm 3 mps 755 mmHg 40%
    15:00 +34°C° 0 mm 4 mps 755 mmHg 46%
    16:00 +33°C° 0 mm 4 mps 755 mmHg 52%
    17:00 +30°C° 0 mm 4 mps 754 mmHg 57%
    18:00 +29°C° 0 mm 4 mps 755 mmHg 64%
    19:00 +28°C° 0 mm 4 mps 756 mmHg 71%
    20:00 +27°C° 0 mm 3 mps 756 mmHg 78%
    21:00 +26°C° 0 mm 3 mps 756 mmHg 80%
    22:00 +26°C° 0 mm 3 mps 757 mmHg 83%
    23:00 +25°C° 0 mm 2 mps 757 mmHg 85%
    Show more